This demonstration page uses our WeatherBlox Daily Observations layout. Learn more.

Left ArrowRight Arrow

39.01783, -85.05884

Hourly Observations for February 14, 2021

Temp ( °F °C ) Dew Point ( °F °C ) Humidity (%) Winds ( mph kmh ) Pressure ( in mb ) Visibility ( mi km ) Precip ( " mm )
12:52 am 00:52 Cloudy 24 -4.4 17 -8.3 75 75 NNW 8 13 30.24 1024 7 11 0.00 0.00
1:52 am 01:52 Cloudy 24 -4.4 16 -8.9 71 71 N 9 15 30.25 1024 8 13 0.00 0.00
2:52 am 02:52 Cloudy 24 -4.4 16 -8.9 71 71 N 9 15 30.26 1025 9 14 0.00 0.00
3:52 am 03:52 Cloudy 23 -5 16 -8.9 74 74 N 8 13 30.27 1025 8 13 0.00 0.00
4:52 am 04:52 Cloudy with Haze 23 -5 17 -8.3 78 78 NNW 9 15 30.28 1025 4 6 0.00 0.00
5:52 am 05:52 Cloudy with Haze 22 -5.6 16 -8.9 78 78 N 8 13 30.30 1026 6 10 0.00 0.00
6:52 am 06:52 Cloudy with Haze 22 -5.6 16 -8.9 78 78 NNE 9 15 30.30 1026 6 10 0.00 0.00
7:52 am 07:52 Cloudy with Mist and Fog 21 -6.1 17 -8.3 85 85 N 9 15 30.32 1027 4 6 0.00 0.00
8:34 am 08:34 Cloudy with Light Snow 21 -6.1 16 -8.9 81 81 NNW 12 19 30.37 1028 2 3 0.00 0.00
8:52 am 08:52 Cloudy with Light Snow 21 -6.1 16 -8.9 81 81 N 12 19 30.34 1027 1 2 0.00 0.00
9:52 am 09:52 Cloudy with Light Snow 21 -6.1 16 -8.9 81 81 N 12 19 30.33 1027 2 3 0.00 0.00
10:12 am 10:12 Cloudy with Haze 21 -6.1 16 -8.9 81 81 N 10 17 30.37 1028 2 3 0.00 0.00
10:24 am 10:24 Cloudy with Haze 22 -5.6 16 -8.9 78 78 N 10 17 30.36 1028 3 5 0.00 0.00
10:52 am 10:52 Cloudy with Haze 23 -5 16 -8.9 74 74 NNE 12 19 30.32 1027 5 8 0.00 0.00
11:52 am 11:52 Cloudy with Haze 24 -4.4 15 -9.4 68 68 NNE 10 17 30.32 1027 5 8 0.00 0.00
12:52 pm 12:52 Cloudy with Haze 25 -3.9 16 -8.9 69 69 NNE 13 20 30.28 1026 5 8 0.00 0.00
1:52 pm 13:52 Cloudy with Haze 25 -3.9 15 -9.4 66 66 NNE 10 17 30.29 1026 6 10 0.00 0.00
2:52 pm 14:52 Cloudy 26 -3.3 15 -9.4 63 63 NE 10 17 30.28 1025 7 11 0.00 0.00
3:52 pm 15:52 Cloudy 27 -2.8 15 -9.4 61 61 NNE 10 17 30.28 1025 7 11 0.00 0.00
4:36 pm 16:36 Cloudy with Haze 25 -3.9 16 -8.9 69 69 N 13 20 30.30 1026 6 10 0.00 0.00
4:52 pm 16:52 Cloudy 25 -3.9 16 -8.9 69 69 N 14 22 30.27 1025 7 11 0.00 0.00
5:52 pm 17:52 Cloudy 24 -4.4 15 -9.4 68 68 N 16 26 30.27 1025 7 11 0.00 0.00
6:52 pm 18:52 Cloudy 23 -5 15 -9.4 72 72 N 12 19 30.29 1026 8 13 0.00 0.00
6:57 pm 18:57 Cloudy 23 -5 14 -10 68 68 N 12 19 30.33 1027 7 11 0.00 0.00
7:52 pm 19:52 Cloudy 22 -5.6 14 -10 71 71 N 14 22 30.29 1026 7 11 0.00 0.00
8:52 pm 20:52 Cloudy 21 -6.1 13 -10.6 71 71 N 17 28 30.27 1025 8 13 0.00 0.00
9:52 pm 21:52 Cloudy 21 -6.1 13 -10.6 71 71 N 13 20 30.29 1026 8 13 0.00 0.00
10:18 pm 22:18 Cloudy 20 -6.7 12 -11.1 71 71 NNE 14 22 30.33 1027 8 13 0.00 0.00
10:52 pm 22:52 Cloudy 20 -6.7 12 -11.1 71 71 NNE 15 24 30.28 1025 7 11 0.00 0.00
11:52 pm 23:52 Cloudy 20 -6.7 12 -11.1 71 71 NNE 15 24 30.26 1025 8 13 0.00 0.00

Powered by AerisWeather